Flag for Germany Weather past 2 weeks in Görlitz, Saxony, Germany

Now
33 °F

Snow. Low clouds.


Feels Like: 25 °F
Forecast: 33 / 35 °F
Wind: 9 mph from Southwest

Location: Goerlitz

Current Time: Jan 27, 2015 at 12:08:34 AM

Latest Report: Jan 26, 2015 at 11:00 PM


Visibility: 2 mi

Pressure: 29.95 "Hg

Humidity: 94%

Dew point: 31 °F

Location of GörlitzLocation

Historic Weather in Görlitz — Graph

°F

Görlitz temperature yesterday

Maximum temperature yesterday: 36 °F (at 2:00 PM)
Minimum temperature yesterday: 30 °F (at 8:00 AM)
Average temperature yesterday: 33 °F

Past Weeks' High & Low Weather Summary

 TemperatureHumidityPressure
High50 °F (Jan 13, 5:00 PM)100% (Jan 22, 10:00 PM)30.34 "Hg (Jan 22, 10:00 PM)
Low28 °F (Jan 24, 6:00 PM)45% (Jan 13, 5:00 PM)29.71 "Hg (Jan 17, 3:00 AM)
Average36 °F86%30.01 "Hg
* Reported Jan 11 10:00 PM — Jan 26 10:00 PM, Görlitz, Weather by CustomWeather, © 2014

Note: Actual official high and low records may vary slightly from our data, if they occured in-between our weather recording intervals... More about our weather records

Advertising

Görlitz weather history for previous 24 hours

 ConditionsComfort  
Time TempWeatherWind HumidityBarometerVisibility
10:00 PM
Jan 26
35 °FLight snow. Overcast.10 mph85%29.96 "Hg7 mi
9:00 PM35 °FOvercast.9 mph84%29.98 "Hg11 mi
8:00 PM36 °FOvercast.10 mph83%30.01 "Hg11 mi
7:00 PM35 °FOvercast.9 mph84%30.04 "Hg13 mi
6:00 PM35 °FOvercast.9 mph84%30.08 "Hg11 mi
5:00 PM35 °FPassing clouds.9 mph83%30.11 "Hg13 mi
4:00 PM36 °FPassing clouds.7 mph79%30.12 "Hg12 mi
3:00 PM35 °FScattered clouds.8 mph78%30.15 "Hg15 mi
2:00 PM36 °FPassing clouds.6 mph77%30.17 "Hg15 mi
1:00 PM36 °FOvercast.5 mph81%30.21 "Hg14 mi
12:00 PM35 °FPassing clouds.6 mph82%30.24 "Hg11 mi
11:00 AM33 °FOvercast.5 mph85%30.26 "Hg12 mi
10:00 AM32 °FOvercast.3 mph88%30.28 "Hg12 mi
9:00 AM31 °FOvercast.2 mph92%30.29 "Hg12 mi
8:00 AM30 °FOvercast.2 mph91%30.30 "Hg12 mi
7:00 AM31 °FOvercast.2 mph91%30.30 "Hg14 mi
6:00 AM31 °FOvercast.2 mph96%30.30 "Hg12 mi
5:00 AM31 °FOvercast.1 mph97%30.31 "Hg9 mi
4:00 AM31 °FOvercast.1 mph98%30.31 "Hg7 mi
3:00 AM31 °FLow clouds.1 mph98%30.32 "Hg6 mi
2:00 AM31 °FSnow flurries. Low clouds.1 mph97%30.33 "Hg6 mi
1:00 AM31 °FLow clouds.1 mph96%30.33 "Hg6 mi
12:00 AM32 °FSnow flurries. Low clouds.1 mph96%30.34 "Hg5 mi
Weather by CustomWeather, © 2014

See weather overviewHow to use our weather pages